Theta_e
316 315 310 307 307 307 307 308 308 309 309 310 310 309 310 309 309 309 309 309 310 311 310 314 312 312 314 316 316 316 320 321 320 319 319 315 318 315 315 316 318 321 319 319 323
315 316 310 308 308 308 308 309 309 309 309 309 309 309 309 309 309 309 309 309 310 310 311 314 312 313 315 315 315 318 319 319 318 318 318 316 318 317 317 317 317 319 319 318 322
315 315 313 310 308 308 309 309 309 309 308 309 308 308 308 308 308 309 309 309 309 310 313 314 311 314 314 314 315 316 319 316 315 314 315 316 315 315 318 318 318 318 319 318 322
315 315 315 311 308 308 309 309 309 308 308 308 308 308 308 308 310 309 309 310 309 310 312 312 311 313 315 316 312 317 313 313 312 313 313 315 314 315 316 318 316 317 318 317 319
315 315 316 312 308 309 309 309 308 308 308 308 307 307 307 308 309 310 311 309 310 311 312 311 312 312 315 313 312 314 313 311 311 311 312 313 314 315 315 315 315 315 315 317 318
315 314 315 315 309 309 309 308 308 308 307 307 307 307 307 309 308 309 312 309 311 311 311 311 311 312 311 312 313 312 311 311 311 311 311 312 311 311 312 313 313 313 314 315 317
314 314 315 315 308 308 308 308 308 307 307 307 307 307 307 309 309 309 311 311 311 311 310 311 312 312 311 312 311 311 312 312 312 312 312 311 313 313 312 311 311 311 312 314 315
314 314 314 315 308 308 308 307 307 307 307 307 307 307 308 308 308 310 311 312 311 310 310 312 312 312 311 311 311 312 313 314 311 312 311 312 315 311 309 311 311 311 311 313 314
315 314 314 314 312 309 307 307 307 307 306 306 307 307 308 307 308 311 310 311 311 310 310 311 312 311 311 314 314 313 314 313 311 311 312 312 314 311 311 312 313 312 311 311 311
315 315 314 313 313 312 307 307 307 306 306 307 307 308 307 308 308 310 310 310 311 311 312 312 312 314 312 314 312 314 312 311 313 311 311 313 314 314 312 311 313 314 313 313 313
315 314 314 314 314 312 307 307 308 308 308 309 309 307 307 309 309 310 310 310 311 312 313 311 313 313 313 313 310 312 311 312 310 310 313 314 314 314 314 312 313 314 314 314 314
316 313 314 313 314 312 308 309 308 307 309 307 308 307 308 310 311 310 310 311 312 312 311 312 312 313 312 309 310 311 311 311 310 310 312 312 313 314 313 313 314 314 313 312 312
316 314 314 313 313 312 308 307 307 307 308 307 308 308 310 310 311 310 310 310 311 311 312 312 311 309 310 309 310 310 311 311 311 310 308 310 313 312 310 308 309 309 309 309 310
316 313 313 313 313 311 308 307 307 308 309 309 309 308 309 310 311 310 310 309 308 311 310 311 307 309 310 310 311 311 309 310 310 312 311 309 312 313 311 311 309 309 309 310 312
316 312 313 313 314 311 308 308 308 308 309 310 308 307 309 311 309 310 310 309 310 309 310 311 308 309 310 311 310 311 308 310 310 312 312 311 312 312 308 312 311 309 309 309 311
315 312 311 314 313 310 307 310 309 312 312 309 309 310 311 309 310 309 310 309 307 309 308 309 307 309 310 306 309 308 310 310 310 311 312 312 311 312 312 311 309 308 311 310 311
315 314 311 313 311 309 307 312 311 313 308 311 310 311 311 310 311 311 311 310 310 310 310 310 310 309 308 310 308 310 312 312 313 313 311 308 310 312 310 308 308 310 311 309 310
313 314 313 312 312 308 308 310 312 310 310 311 311 311 310 310 311 310 312 311 310 309 310 310 309 310 309 311 311 311 312 314 316 313 312 307 312 312 308 307 307 310 309 309 310
314 314 315 313 310 307 311 311 311 310 310 313 310 311 310 311 311 311 312 311 311 309 309 310 309 309 308 308 311 311 311 310 309 303 313 312 311 311 308 311 310 309 309 309 309
312 314 313 312 309 308 309 311 311 309 312 311 312 310 310 311 311 311 311 311 311 308 308 310 310 309 309 309 309 310 310 310 310 316 314 310 310 312 311 312 310 309 309 307 308
307 310 310 311 307 310 310 311 310 309 311 312 313 311 311 311 310 311 311 310 311 308 308 308 311 311 309 311 311 309 310 310 310 313 317 313 311 310 313 313 312 310 309 308 309
302 303 306 309 308 308 309 310 309 311 313 313 312 312 311 311 311 312 311 310 309 309 309 309 312 313 312 309 308 310 311 311 312 312 310 311 311 307 309 312 311 310 307 308 309
301 300 302 307 307 307 308 310 310 312 314 314 314 313 310 311 312 311 311 309 308 310 311 309 314 316 312 311 309 310 309 311 311 311 313 315 312 308 310 310 309 308 307 308 309
301 304 300 301 300 307 309 310 310 310 313 312 314 313 312 312 312 312 311 312 308 309 310 309 311 312 313 311 312 312 311 310 311 313 312 312 312 311 311 311 308 307 307 307 308
300 302 301 304 302 304 309 310 310 311 312 312 313 315 314 314 312 313 312 312 312 311 310 312 313 311 311 310 312 313 313 312 311 312 312 312 311 312 313 313 310 307 307 306 306
299 299 299 300 300 304 306 306 309 310 311 313 314 313 314 315 314 313 312 313 314 312 311 310 316 312 312 311 311 313 312 313 312 312 312 311 311 311 312 312 310 307 305 305 306
298 298 301 301 303 304 305 305 306 307 307 310 312 313 314 314 311 311 311 312 313 313 312 311 312 313 315 312 313 314 312 312 312 311 312 312 312 308 310 309 309 307 306 306 305
Wind_Speed
25 24 26 26 27 27 27 25 24 23 22 21 19 16 15 13 13 15 14 9 10 7 9 13 11 11 10 7 5 4 2 5 6 7 6 9 7 7 6 4 5 7 2 3 16
26 24 27 27 27 27 27 25 24 23 21 21 18 16 14 12 12 16 12 10 11 10 10 13 14 13 6 6 3 2 2 6 4 6 6 11 7 11 7 8 5 6 9 6 17
27 25 26 27 28 28 27 25 24 22 21 20 18 15 13 10 7 12 14 12 9 10 12 12 11 11 5 5 4 3 3 4 5 3 5 10 5 6 6 6 10 12 12 12 17
27 26 25 27 29 29 27 26 24 22 19 18 17 16 13 12 6 7 12 14 12 12 12 14 14 7 5 6 4 4 2 3 4 4 5 10 6 5 8 1 4 11 10 15 17
28 26 24 27 29 29 28 26 25 22 19 17 16 15 14 10 7 3 7 15 15 14 14 15 16 7 5 5 5 3 5 4 5 5 6 9 3 2 8 8 8 5 10 15 18
28 26 26 25 31 30 29 26 25 23 20 17 16 15 13 8 8 8 4 14 16 16 17 17 13 9 6 3 3 5 6 7 4 3 3 2 3 2 3 8 13 15 12 13 17
28 27 27 27 31 29 28 26 25 21 19 16 15 14 13 9 8 11 9 13 14 15 15 14 7 8 10 7 5 9 4 4 3 3 2 3 5 6 6 8 8 9 14 15 15
26 27 27 25 30 29 28 25 23 21 18 16 14 14 6 13 8 11 12 13 15 14 13 13 10 10 4 12 4 4 3 5 2 3 1 5 11 3 5 5 13 11 9 16 17
27 25 27 25 26 29 27 24 21 19 17 15 14 10 5 11 16 13 13 13 15 16 14 13 10 5 8 7 4 0 5 4 2 2 2 4 5 4 4 2 4 8 11 15 15
22 25 28 26 26 26 27 24 21 19 16 13 9 8 8 10 18 17 17 17 14 18 16 9 4 4 4 7 9 6 4 2 4 3 1 3 13 6 6 8 9 9 9 11 11
26 23 27 25 29 28 32 28 17 7 23 7 11 3 10 14 18 19 18 20 16 9 8 4 8 12 11 8 1 4 4 5 2 2 3 8 13 12 12 12 13 15 17 17 17
29 26 28 26 31 31 34 21 23 11 9 12 7 13 11 15 9 21 23 11 9 10 9 5 13 9 8 8 6 5 5 3 2 1 3 1 12 13 11 11 16 15 13 14 17
31 26 27 29 31 31 36 22 21 20 6 11 11 18 9 17 8 25 28 13 6 8 15 12 4 13 7 7 8 3 7 4 2 3 2 5 8 6 2 8 10 9 9 10 12
37 30 29 31 31 34 38 21 19 11 3 6 9 8 17 10 4 21 24 12 4 11 9 5 2 11 8 6 8 8 8 5 6 2 4 3 6 4 3 9 4 3 3 4 4
45 37 34 38 23 36 36 20 19 7 6 9 9 10 18 11 15 12 20 8 11 8 7 6 10 13 8 7 10 3 5 4 3 3 1 4 5 3 1 7 6 5 3 4 5
40 41 38 40 28 35 34 21 17 3 10 6 7 10 12 12 3 11 12 8 7 6 3 3 1 3 4 4 3 15 8 6 4 1 5 8 6 5 6 5 5 2 2 6 8
33 40 42 43 33 31 37 24 6 8 5 9 8 10 16 9 6 8 16 13 10 9 10 3 3 2 4 8 5 3 13 3 3 4 6 1 4 9 4 4 3 3 5 7 11
37 37 45 44 31 41 42 11 7 13 11 3 8 15 15 13 9 8 15 15 15 5 8 12 7 10 6 4 10 11 9 6 7 5 2 2 8 4 1 1 4 7 7 11 13
36 47 48 43 38 51 35 14 13 8 14 11 14 19 12 12 7 10 15 16 19 16 13 10 11 0 1 4 12 7 8 3 7 1 1 5 5 9 6 5 9 9 10 11 14
19 36 43 43 50 47 15 16 13 5 12 17 11 11 19 20 13 15 14 13 9 13 4 8 4 1 2 4 1 7 12 4 4 6 6 7 6 10 7 12 10 11 13 11 15
6 10 21 45 50 39 17 16 8 6 11 12 8 8 11 13 17 15 13 7 19 14 13 6 3 2 4 12 16 6 7 4 4 4 6 4 7 4 13 17 17 17 15 15 17
4 2 12 51 11 10 15 14 10 8 8 5 4 5 12 14 15 13 19 10 17 20 19 9 5 6 11 1 4 9 14 17 8 9 4 2 9 0 5 19 22 20 17 17 17
5 2 2 42 8 13 6 15 5 7 7 5 6 3 3 11 9 14 10 4 14 17 16 11 5 4 3 5 3 8 7 11 10 3 10 6 9 4 7 15 18 22 18 17 16
6 2 2 5 3 8 8 13 12 13 5 4 4 2 5 6 3 14 11 2 9 12 13 24 4 18 18 12 9 10 12 13 13 8 17 14 22 6 10 13 17 18 19 18 16
3 2 3 3 3 2 16 11 17 12 11 15 5 10 9 6 12 8 11 5 3 3 8 11 10 11 15 5 7 10 15 20 20 26 17 28 19 16 22 19 26 22 20 20 20
5 3 2 4 7 6 7 7 21 17 14 11 17 15 11 9 11 7 10 8 7 5 9 4 3 8 5 10 9 4 16 23 27 28 24 23 19 7 28 21 21 24 24 23 22
7 6 4 5 6 3 3 5 6 6 4 11 17 12 14 11 6 2 5 14 12 12 12 10 7 5 11 6 5 7 26 18 20 25 23 22 26 8 10 19 26 28 29 27 26
Wind_Direction
199 198 201 200 200 199 198 200 199 195 196 196 200 200 208 209 224 233 240 233 221 221 201 190 180 177 179 189 184 180 175 166 164 170 142 160 178 159 171 143 181 194 147 179 179
201 195 196 197 196 196 195 193 197 195 194 196 197 196 206 206 220 238 226 226 216 209 208 198 183 173 160 181 176 205 194 176 174 166 155 173 187 160 169 167 201 207 210 188 187
204 196 195 194 193 192 193 191 192 197 197 195 194 192 197 200 228 242 226 215 214 203 191 191 191 172 144 183 166 155 208 160 183 164 143 164 191 171 179 196 203 212 205 206 193
203 194 192 193 191 191 191 190 191 196 199 198 194 192 188 180 198 202 204 201 200 200 191 186 177 178 149 179 162 166 99 128 139 166 146 158 152 187 206 225 171 210 197 215 208
203 194 195 194 191 190 190 190 191 193 199 201 196 191 184 196 213 172 187 189 194 194 194 189 179 168 169 155 137 152 142 111 134 143 122 144 153 215 242 232 238 208 208 218 219
203 198 194 197 192 190 189 191 191 191 195 200 198 193 194 215 207 195 174 184 187 183 195 196 196 180 116 156 212 137 130 128 137 141 112 163 142 210 216 233 247 243 231 221 223
202 200 195 197 193 191 190 189 189 190 193 197 197 197 206 212 204 189 181 185 186 186 195 195 191 164 146 133 132 128 104 130 141 156 105 122 247 224 242 235 257 256 230 226 226
196 199 198 197 191 190 190 189 186 186 189 191 190 194 229 220 201 189 176 181 182 181 188 188 174 154 130 130 75 112 129 185 112 179 137 188 246 212 258 246 247 245 231 229 228
195 195 198 198 186 189 186 184 183 181 183 183 182 179 221 205 198 186 178 183 176 170 172 176 166 123 126 147 133 165 182 202 173 234 149 218 249 148 192 145 268 258 243 240 238
192 193 198 197 181 186 178 175 172 174 172 170 187 189 219 207 189 185 176 171 161 162 143 159 138 166 135 192 204 167 173 190 210 174 204 206 253 236 221 267 259 263 251 238 234
186 193 193 193 181 180 169 155 145 156 169 182 185 199 167 180 177 184 176 170 159 157 161 144 197 200 187 192 102 142 145 176 130 85 217 234 264 266 269 271 252 248 249 253 259
183 187 189 190 181 180 175 174 174 184 172 202 199 201 174 166 156 178 174 166 162 177 138 162 213 183 158 159 150 153 144 166 80 45 240 293 276 271 253 253 255 254 247 259 265
190 183 189 185 182 184 180 178 162 147 134 201 203 202 181 181 179 180 177 172 165 161 192 197 159 154 152 168 155 176 196 177 194 178 132 307 268 276 242 249 261 260 258 252 251
190 180 187 182 185 187 186 174 166 161 125 174 200 221 200 177 193 181 178 171 129 185 170 208 117 157 156 183 185 205 203 167 156 152 260 0 287 277 254 277 239 191 145 158 162
189 186 187 186 183 186 180 168 163 159 199 161 164 192 178 177 140 181 173 180 156 155 181 173 163 160 178 185 180 206 145 119 87 118 319 187 255 252 348 263 186 166 152 163 147
180 182 184 186 189 191 170 152 154 93 228 173 149 168 156 193 119 138 172 169 129 115 57 114 335 197 148 77 156 147 108 74 78 107 251 211 227 228 214 233 149 138 155 156 143
183 188 192 190 177 175 165 156 95 202 142 185 176 172 173 164 141 170 178 180 167 164 187 129 173 147 144 105 112 173 157 124 200 203 248 68 209 258 222 198 182 156 150 149 139
196 196 195 196 181 167 163 148 188 201 196 101 154 155 179 154 187 166 166 188 213 183 155 182 201 178 173 190 172 180 189 172 193 198 200 92 229 248 116 267 207 141 144 138 132
190 204 186 186 171 163 172 186 202 174 180 150 147 159 184 189 170 171 196 200 194 192 193 191 209 141 158 150 156 178 213 128 102 49 229 208 250 264 215 168 151 139 142 135 134
183 168 174 175 170 169 168 206 210 181 151 165 165 187 186 182 172 193 179 193 197 188 207 174 153 344 142 131 32 201 143 157 219 192 231 219 254 235 191 183 163 157 153 145 135
168 154 156 179 164 174 190 200 182 202 190 184 172 156 186 178 192 193 198 205 195 181 189 143 130 123 165 211 181 155 185 194 192 202 218 238 244 225 208 180 170 164 160 153 141
178 115 110 164 164 192 204 189 193 170 184 193 170 129 179 169 185 191 208 222 189 164 192 178 126 164 198 27 291 218 211 187 198 198 252 304 252 200 208 167 166 166 166 160 153
103 67 338 165 175 187 164 198 187 171 181 186 177 206 163 170 182 205 193 196 171 176 179 168 190 142 191 228 200 223 200 228 233 39 211 203 249 24 150 156 164 161 169 170 162
127 147 24 175 108 184 162 187 196 208 179 159 157 116 140 174 193 189 188 152 192 196 183 162 149 211 218 224 159 205 205 206 202 211 227 225 243 165 181 176 176 179 174 174 171
126 158 153 146 179 165 181 183 183 190 214 190 229 214 180 167 192 182 177 127 82 183 168 171 205 213 238 273 205 201 196 198 202 223 217 240 234 206 190 191 192 180 177 180 178
146 154 132 116 136 129 167 189 194 194 183 197 222 197 195 197 197 173 149 177 173 172 187 221 204 170 233 208 217 223 213 206 215 225 229 241 250 229 198 186 182 187 183 184 181
177 151 135 153 143 160 173 148 175 184 219 222 211 197 210 201 127 126 172 175 162 163 182 167 148 139 241 176 137 273 225 210 218 223 222 228 237 156 179 187 187 189 191 187 184